Location: Freemans Gardens
(41.6414°N, 83.6077°W)
Time: 03:43:31
(UTC+00:00)

OAO 2 Rocket - Pass Details

Date: 29 October 2020
Orbit: 676 x 746 km, 35.0° (Epoch: 26 November)

Event Time Altitude Azimuth Distance (km) Brightness Sun altitude
Rises 23:36:31 0° 252° (WSW) 3,070 8.5 -12.6°
Reaches altitude 10° 23:39:04 10° 245° (WSW) 2,141 7.1 -13.0°
Maximum altitude 23:43:42 38° 177° (S) 1,032 4.2 -13.9°
Enters shadow 23:46:57 17° 117° (ESE) 1,673 4.8 -14.5°
